Regional Weather Roundup
Issued by NWS

Home | Current Version | Previous Version | Graphics & Text | Print | Product List | Glossary On
Versions: 1 2 3 4 5 6 7 8 9 10 11 12 13 14 15 16 17 18 19 20 21 22 23 24 25 26 27 28 29 30 31 32 33 34 35 36 37 38 39 40 41 42 43 44 45 46 47 48 49 50
000
ASUS45 KABQ 160410
RWRNM
NEW MEXICO REGIONAL WEATHER ROUNDUP
NATIONAL WEATHER SERVICE ALBUQUERQUE NM
900 PM MST FRI DEC 15 2017

NOTE: "FAIR" MEANS FEW OR NO CLOUDS BELOW 12,000 FEET AGL WITH NO
       SIGNIFICANT WEATHER OR OBSTRUCTIONS TO VISION.

      THIS PRODUCT IS RELEASED AS TWO VERSIONS.  ONE VERSION NEAR
      THE TOP OF THE HOUR CONTAINING PRELIMINARY DATA FROM ALBUQUERQUE
      AND OTHER STATIONS.  A FINAL VERSION WITH ADDITIONAL DATA IS
      ISSUED ABOUT 10 MINUTES AFTER THE HOUR.

NMZ501-503-504-510>518-160500-
NORTHWEST PLATEAU/NORTHCENTRAL MOUNTAINS

CITY           SKY/WX    TMP DP  RH WIND       PRES   REMARKS
FARMINGTON     FAIR      22   5  48 NE7       30.11F WCI  13
LOS ALAMOS     FAIR      37  13  36 CALM      30.11F
SANTA FE       FAIR      27  13  55 NW6       30.09F WCI  20
TAOS           FAIR      19  -1  41 N5        30.14F WCI  12
ANGEL FIRE     FAIR      16   3  56 CALM      30.13F

$$
NMZ402-403-502-505>509-160500-
WESTCENTRAL MOUNTAINS/SOUTHWEST MOUNTAINS

CITY           SKY/WX    TMP DP  RH WIND       PRES   REMARKS
GALLUP         FAIR      23   1  38 E3        30.15S
GRANTS         FAIR      26  -9  21 NW14      30.15F WCI  14
SILVER CITY    FAIR      24  11  57 NE5       30.17S WCI  18

$$
NMZ407-409-411-412-160500-
SOUTHERN DESERTS

CITY           SKY/WX    TMP DP  RH WIND       PRES   REMARKS
DEMING         FAIR      34  18  52 W3        30.17F
LAS CRUCES     FAIR      31  16  52 W7        30.18S WCI  25
HOLLOMAN AFB   FAIR      31  15  50 SE6       30.19R WCI  26
ALAMOGORDO     FAIR      37  16  41 S3        30.18R
T OR C         FAIR      39  16  39 SW6       30.14F WCI  35

$$
NMZ519>523-160500-
CENTRAL VALLEYS/CENTRAL HIGHLANDS

CITY           SKY/WX    TMP DP  RH WIND       PRES   REMARKS
ALBUQUERQUE    FAIR      27   9  46 SE7       30.13S WCI  19
DOUBLE EAGLE   CLEAR     21  10  63 S7        30.13F WCI  13
MORIARTY ARPT  FAIR      20   6  53 CALM      30.11F
CLINES CORNERS FAIR      30  10  43 W22       30.07F WCI  17
BELEN          FAIR      29  12  48 S5        30.12F WCI  24
SOCORRO        FAIR      34  16  48 S9        30.13F WCI  26

$$
NMZ524>526-539-540-160500-
SOUTHCENTRAL MOUNTAINS

CITY           SKY/WX    TMP DP  RH WIND       PRES   REMARKS
RUIDOSO        FAIR      32   1  27 W5        30.14S WCI  27

$$
NMZ527>531-160500-
NORTHEAST HIGHLANDS/NORTHEAST PLAINS

CITY           SKY/WX    TMP DP  RH WIND       PRES   REMARKS
LAS VEGAS      FAIR      39   1  20 N8        30.03F WCI  33
RATON          FAIR      26   7  44 NE5       29.99F WCI  20
CLAYTON        FAIR      37  13  37 W13       29.94F WCI  29

$$
NMZ532>537-160500-
EASTCENTRAL PLAINS

CITY           SKY/WX    TMP DP  RH WIND       PRES   REMARKS
SANTA ROSA     FAIR      37  12  36 S8        30.01F WCI  30
TUCUMCARI      FAIR      41  22  46 SW12G21   29.98F
CANNON AFB     CLEAR     28  22  77 SW8       30.07F WCI  20
CLOVIS AIRPORT FAIR      27  19  72 SW10      30.07F WCI  17

$$
NMZ028-029-538-160500-
SOUTHEAST PLAINS

CITY           SKY/WX    TMP DP  RH WIND       PRES   REMARKS
ROSWELL        FAIR      34  21  59 S10       30.09S WCI  26
ARTESIA        FAIR      36  21  55 S10       30.12S WCI  28
CARLSBAD       FAIR      36  26  67 S12       30.13S WCI  28
HOBBS          FAIR      34  23  64 SW8       30.14F WCI  27


$$



USA.gov is the U.S. government's official web portal to all federal, state and local government web resources and services.